ハリントン-エーベル彗星

52P/Harrington-Abell (2021)

English version
Home page
Updated on September 18, 2021

---------------------------------------------------------------------

・ プロフィール

・ 写真集

・ 軌道要素

Epoch 2021 July 5.0 TT = JDT 2459400.5
T 2021 Oct. 5.20046 TT                                  Rudenko
q   1.7772169            (2000.0)            P               Q
n   0.12977891     Peri.  139.59754     -0.44925241     -0.89066887
a   3.8636695      Node   336.83849     +0.76705194     -0.34444052
e   0.5400184      Incl.   10.23169     +0.45804322     -0.29676538
P   7.59
From 1378 observations 1983 Sept. 18-2021 Aug. 31, mean residual 0".7.
     Nongravitational parameters A1 = -0.08, A2 = +0.0065.

・ 星図

・ 光度変化

        m1 = 11.0 + 5 logΔ + 16.0 log r

---------------------------------------------------------------------

軌道要素はM.P.E.C. 2021-R75に掲載されたものです。
星図はステラナビゲータ Ver.10 (アストロアーツ) で作成したものです。
光度グラフはComet for Windowsで作成したものです。

---------------------------------------------------------------------

Copyright(C) Seiichi Yoshida (comet@aerith.net). All rights reserved.